Flag for Germany Weather for the Past 2 Weeks in Neuburg an der Donau, Bavaria, Germany

Now
28 °F

Ice fog.


Feels Like: 28 °F
Forecast: 36 / 50 °F
Wind: 2 mph from East

Location: Neuburg / Donau

Current Time: Feb 7, 2016 at 5:41:49 AM

Latest Report: Feb 7, 2016 at 4:20 AM


Visibility: 0 mi

Pressure: 29.74 "Hg

Humidity: 100%

Dew point: 28 °F

Location of Neuburg an der DonauLocation

Historic Weather in Neuburg an der Donau — Graph

°F

Neuburg an der Donau Temperature Yesterday

Maximum temperature yesterday: 46 °F (at 3:20 PM)
Minimum temperature yesterday: 28 °F (at 5:20 AM)
Average temperature yesterday: 35 °F

High & Low Weather Summary for the Past Weeks

 TemperatureHumidityPressure
High55 °F (Jan 27, 3:20 PM)100% (Jan 23, 8:20 AM)30.63 "Hg (Jan 23, 8:20 AM)
Low19 °F (Jan 23, 4:02 AM)58% (Jan 30, 2:20 PM)29.77 "Hg (Feb 7, 1:20 AM)
Average40 °F87%30.23 "Hg
* Reported Jan 23 4:02 AM — Feb 7 3:52 AM, Neuburg an der Donau, Weather by CustomWeather, © 2016

Note: Actual official high and low records may vary slightly from our data, if they occured in-between our weather recording intervals... More about our weather records

Advertising

Neuburg an der Donau Weather History for the Previous 24 Hours

 ConditionsComfort  
Time TempWeatherWind HumidityBarometerVisibility
3:52 AM
Sun, Feb 7
28 °FIce fog.No wind93%29.77 "Hg1 mi
3:20 AM32 °FIce fog.1 mph93%29.77 "Hg2 mi
2:20 AM34 °FPassing clouds.3 mph100%29.77 "Hg4 mi
1:20 AM32 °FPassing clouds.3 mph100%29.77 "Hg4 mi
12:20 AM34 °FPassing clouds.2 mph100%29.80 "Hg4 mi
11:20 PM
Sat, Feb 6
36 °FPassing clouds.2 mph93%29.83 "HgN/A
10:20 PM37 °FPassing clouds.6 mph100%29.83 "HgN/A
9:20 PM37 °FPassing clouds.5 mph100%29.86 "HgN/A
8:20 PM37 °FPassing clouds.3 mph93%29.89 "HgN/A
7:20 PM39 °FPassing clouds.5 mph93%29.92 "HgN/A
6:20 PM41 °FPassing clouds.2 mph87%29.95 "HgN/A
5:20 PM43 °FPartly cloudy.3 mph87%29.98 "HgN/A
4:20 PM46 °FPartly sunny.3 mph82%30.01 "HgN/A
3:20 PM46 °FPartly sunny.3 mph82%30.01 "HgN/A
2:20 PM43 °FPartly sunny.2 mph87%30.04 "HgN/A
1:20 PM39 °FFog.1 mph100%30.07 "Hg3 mi
1:01 PM37 °FFog.2 mph100%30.09 "Hg2 mi
12:20 PM34 °FFog.No wind100%30.12 "Hg1 mi
11:20 AM32 °FIce fog.1 mph100%30.15 "Hg0 mi
10:20 AM30 °FIce fog.1 mph100%30.15 "Hg0 mi
9:20 AM28 °FIce fog.3 mph100%30.15 "Hg0 mi
8:20 AM28 °FIce fog.1 mph100%30.15 "Hg0 mi
7:20 AM28 °FIce fog.2 mph100%30.15 "Hg0 mi
6:20 AM28 °FIce fog.2 mph100%30.15 "Hg0 mi
5:20 AM28 °FIce fog.1 mph100%30.18 "Hg0 mi
Weather by CustomWeather, © 2016

See weather overviewHow to use our weather pages